{"data":{"norad_id":68591,"intl_designator":"2026-072U","name":"KUIPER-00289","alt_names":[],"object_type":"PAYLOAD","status":"ACTIVE","operator":null,"country":"US","launch_date":"2026-04-04","launch_site_code":"AFETR","launch_vehicle":null,"mission":null,"orbit_class":"UNKNOWN","rcs_meters":null,"size_class":null,"mass_kg":null,"dimensions":null,"purposes":[],"wikipedia_slug":null,"has_3d_model":false,"image_url":null,"decayed_at":null,"tle_current":{"epoch":"2026-05-25T02:33:57.418848Z","epoch_age_seconds":61950,"freshness":"FRESH","line1":"1 68591U 26072U   26145.10691457  .00008462  00000+0  24434-3 0  9996","line2":"2 68591  51.8661 288.9410 0010810 311.0388  48.9663 15.36465972  7825","mean_motion":15.36465972,"eccentricity":0.001081,"inclination_deg":51.8661,"raan_deg":288.941,"arg_perigee_deg":311.0388,"mean_anomaly_deg":48.9663,"bstar":0.00024434,"rev_number":782,"period_min":93.721567951522,"perigee_km":449.18129978167,"apogee_km":463.957935489,"semimajor_km":6834.7066176353,"source":"CELESTRAK","updated_at":"2026-05-25T13:38:07.952446Z"}}}